• In Österreich
  • Länderverzeichnis
  • Für 7 Tage
  • Wassertemperatur
  • Satellitenkarten
  • Wetterkarte
  • News
  • Widgets
  • user-avatar
    Anmelden

    Stündliche Wetter Zyabrikovo

    Heute, 23 Oktober, Dienstag

    Zeit Temperatur Niederschläge Wind Luftdruck Luftfeuchtigkeit
    00:00 +5°C° 0.6 mm 4 m/S 737 mmHg 86%
    01:00 +5°C° 0.6 mm 4 m/S 737 mmHg 88%
    02:00 +5°C° 0.6 mm 4 m/S 736 mmHg 89%
    03:00 +5°C° 0.5 mm 3 m/S 736 mmHg 89%
    04:00 +5°C° 0.5 mm 3 m/S 736 mmHg 89%
    05:00 +5°C° 0.5 mm 3 m/S 735 mmHg 89%
    06:00 +4°C° 0 mm 3 m/S 735 mmHg 88%
    07:00 +4°C° 0 mm 3 m/S 735 mmHg 87%
    08:00 +4°C° 0 mm 3 m/S 735 mmHg 86%
    09:00 +5°C° 0 mm 2 m/S 735 mmHg 82%
    10:00 +6°C° 0 mm 2 m/S 734 mmHg 78%
    11:00 +6°C° 0 mm 2 m/S 734 mmHg 75%
    12:00 +6°C° 0 mm 2 m/S 733 mmHg 73%
    13:00 +6°C° 0 mm 2 m/S 733 mmHg 71%
    14:00 +7°C° 0 mm 2 m/S 732 mmHg 69%
    15:00 +6°C° 0 mm 2 m/S 731 mmHg 73%
    16:00 +5°C° 0 mm 2 m/S 731 mmHg 77%
    17:00 +4°C° 0 mm 2 m/S 730 mmHg 82%
    18:00 +4°C° 0 mm 2 m/S 729 mmHg 82%
    19:00 +4°C° 0 mm 2 m/S 729 mmHg 82%
    20:00 +4°C° 0 mm 2 m/S 728 mmHg 83%
    21:00 +3°C° 0 mm 3 m/S 727 mmHg 83%
    22:00 +3°C° 0 mm 3 m/S 726 mmHg 84%
    23:00 +3°C° 0 mm 3 m/S 725 mmHg 85%

    Morgen, 24 Oktober, Mittwoch

    Zeit Temperatur Niederschläge Wind Luftdruck Luftfeuchtigkeit
    00:00 +2°C° 0 mm 3 m/S 724 mmHg 85%
    01:00 +2°C° 0 mm 3 m/S 723 mmHg 85%
    02:00 +2°C° 0 mm 3 m/S 722 mmHg 85%
    03:00 +1°C° 0.2 mm 4 m/S 722 mmHg 85%
    04:00 +1°C° 0.2 mm 4 m/S 721 mmHg 85%
    05:00 +1°C° 0.2 mm 4 m/S 720 mmHg 84%
    06:00 +1°C° 0.3 mm 4 m/S 720 mmHg 85%
    07:00 +3°C° 0.3 mm 4 m/S 719 mmHg 85%
    08:00 +3°C° 0.3 mm 4 m/S 719 mmHg 85%
    09:00 +3°C° 0.2 mm 4 m/S 719 mmHg 84%
    10:00 +3°C° 0.2 mm 4 m/S 719 mmHg 83%
    11:00 +4°C° 0.2 mm 4 m/S 719 mmHg 82%
    12:00 +4°C° 0.3 mm 4 m/S 719 mmHg 83%
    13:00 +4°C° 0.3 mm 3 m/S 719 mmHg 84%
    14:00 +4°C° 0.3 mm 3 m/S 719 mmHg 84%
    15:00 +4°C° 0.4 mm 3 m/S 719 mmHg 86%
    16:00 +3°C° 0.4 mm 3 m/S 720 mmHg 87%
    17:00 +3°C° 0.4 mm 3 m/S 720 mmHg 89%
    18:00 +3°C° 0.4 mm 3 m/S 720 mmHg 89%
    19:00 +3°C° 0.4 mm 3 m/S 720 mmHg 90%
    20:00 +3°C° 0.4 mm 3 m/S 721 mmHg 91%
    21:00 +3°C° 0.3 mm 3 m/S 721 mmHg 91%
    22:00 +3°C° 0.3 mm 3 m/S 721 mmHg 92%
    23:00 +3°C° 0.3 mm 3 m/S 721 mmHg 92%

    übermorgen, 25 Oktober, Donnerstag

    Zeit Temperatur Niederschläge Wind Luftdruck Luftfeuchtigkeit
    00:00 +3°C° 0.2 mm 3 m/S 722 mmHg 92%
    01:00 +3°C° 0.2 mm 3 m/S 722 mmHg 91%
    02:00 +3°C° 0.2 mm 3 m/S 722 mmHg 90%
    03:00 +1°C° 0.1 mm 4 m/S 722 mmHg 89%
    04:00 +1°C° 0.1 mm 4 m/S 722 mmHg 88%
    05:00 +1°C° 0.1 mm 4 m/S 722 mmHg 87%
    06:00 0°C° 0 mm 5 m/S 722 mmHg 86%
    07:00 0°C° 0 mm 5 m/S 722 mmHg 85%
    08:00 0°C° 0 mm 5 m/S 721 mmHg 84%
    09:00 0°C° 0 mm 5 m/S 721 mmHg 83%
    10:00 -1°C° 0 mm 6 m/S 721 mmHg 82%
    11:00 -1°C° 0 mm 6 m/S 721 mmHg 80%
    12:00 -1°C° 0 mm 6 m/S 720 mmHg 79%
    13:00 -1°C° 0 mm 6 m/S 720 mmHg 79%
    14:00 -1°C° 0 mm 6 m/S 720 mmHg 78%
    15:00 -1°C° 0.1 mm 6 m/S 720 mmHg 78%
    16:00 -1°C° 0.1 mm 6 m/S 720 mmHg 77%
    17:00 -1°C° 0.1 mm 6 m/S 720 mmHg 77%
    18:00 -1°C° 0.1 mm 6 m/S 720 mmHg 77%
    19:00 -1°C° 0.1 mm 6 m/S 720 mmHg 77%
    20:00 -1°C° 0.1 mm 6 m/S 721 mmHg 77%
    21:00 -1°C° 0 mm 6 m/S 721 mmHg 77%
    22:00 -1°C° 0 mm 6 m/S 722 mmHg 78%
    23:00 -1°C° 0 mm 6 m/S 722 mmHg 78%

    26 Oktober, Freitag

    Zeit Temperatur Niederschläge Wind Luftdruck Luftfeuchtigkeit
    00:00 -2°C° 0 mm 6 m/S 723 mmHg 79%
    01:00 -1°C° 0 mm 5 m/S 723 mmHg 80%
    02:00 -1°C° 0 mm 5 m/S 724 mmHg 82%
    03:00 -1°C° 0 mm 5 m/S 725 mmHg 83%
    04:00 -1°C° 0 mm 5 m/S 725 mmHg 84%
    05:00 -1°C° 0 mm 4 m/S 726 mmHg 85%
    06:00 -1°C° 0 mm 4 m/S 726 mmHg 85%
    07:00 -1°C° 0 mm 4 m/S 727 mmHg 85%
    08:00 -1°C° 0 mm 4 m/S 727 mmHg 84%
    09:00 0°C° 0 mm 4 m/S 727 mmHg 82%
    10:00 0°C° 0 mm 4 m/S 728 mmHg 80%
    11:00 +1°C° 0 mm 4 m/S 728 mmHg 78%
    12:00 +1°C° 0 mm 4 m/S 729 mmHg 79%
    13:00 +1°C° 0 mm 4 m/S 729 mmHg 79%
    14:00 +1°C° 0 mm 4 m/S 729 mmHg 79%
    15:00 +1°C° 0.1 mm 4 m/S 730 mmHg 80%
    16:00 +1°C° 0.1 mm 4 m/S 730 mmHg 81%
    17:00 +2°C° 0.1 mm 3 m/S 731 mmHg 82%
    18:00 +1°C° 0 mm 3 m/S 731 mmHg 84%
    19:00 +1°C° 0 mm 3 m/S 731 mmHg 85%
    20:00 +1°C° 0 mm 3 m/S 732 mmHg 86%
    21:00 0°C° 0 mm 3 m/S 732 mmHg 88%
    22:00 0°C° 0 mm 3 m/S 732 mmHg 89%
    23:00 0°C° 0 mm 3 m/S 733 mmHg 90%

    27 Oktober, Samstag

    Zeit Temperatur Niederschläge Wind Luftdruck Luftfeuchtigkeit
    00:00 0°C° 0 mm 3 m/S 733 mmHg 91%
    01:00 -1°C° 0 mm 3 m/S 734 mmHg 92%
    02:00 -1°C° 0 mm 3 m/S 734 mmHg 93%
    03:00 -1°C° 0 mm 3 m/S 735 mmHg 93%
    04:00 -2°C° 0 mm 3 m/S 735 mmHg 94%
    05:00 -2°C° 0 mm 2 m/S 736 mmHg 95%
    06:00 -2°C° 0 mm 2 m/S 736 mmHg 94%
    07:00 -1°C° 0 mm 2 m/S 736 mmHg 93%
    08:00 -1°C° 0 mm 2 m/S 736 mmHg 92%
    09:00 0°C° 0 mm 3 m/S 736 mmHg 89%
    10:00 +1°C° 0 mm 3 m/S 736 mmHg 85%
    11:00 +2°C° 0 mm 3 m/S 736 mmHg 82%
    12:00 +3°C° 0 mm 3 m/S 736 mmHg 81%
    13:00 +3°C° 0 mm 4 m/S 736 mmHg 80%
    14:00 +4°C° 0 mm 4 m/S 735 mmHg 79%
    15:00 +3°C° 0.3 mm 4 m/S 735 mmHg 81%
    16:00 +2°C° 0.3 mm 5 m/S 734 mmHg 83%
    17:00 +2°C° 0.3 mm 5 m/S 734 mmHg 85%
    18:00 +3°C° 0.3 mm 5 m/S 733 mmHg 86%
    19:00 +3°C° 0.3 mm 5 m/S 733 mmHg 86%
    20:00 +5°C° 0.3 mm 5 m/S 733 mmHg 87%
    21:00 +5°C° 0.1 mm 5 m/S 733 mmHg 87%
    22:00 +5°C° 0.1 mm 5 m/S 733 mmHg 86%
    23:00 +5°C° 0.1 mm 4 m/S 733 mmHg 86%

    28 Oktober, Sonntag

    Zeit Temperatur Niederschläge Wind Luftdruck Luftfeuchtigkeit
    00:00 +5°C° 0.1 mm 4 m/S 733 mmHg 88%
    01:00 +5°C° 0.1 mm 3 m/S 734 mmHg 90%
    02:00 +4°C° 0.1 mm 3 m/S 734 mmHg 91%
    03:00 +4°C° 0 mm 3 m/S 734 mmHg 92%
    04:00 +5°C° 0 mm 2 m/S 734 mmHg 93%
    05:00 +5°C° 0 mm 2 m/S 734 mmHg 94%
    06:00 +5°C° 0.2 mm 2 m/S 734 mmHg 94%
    07:00 +5°C° 0.2 mm 2 m/S 734 mmHg 95%
    08:00 +6°C° 0.2 mm 1 m/S 734 mmHg 95%
    09:00 +6°C° 0.3 mm 1 m/S 734 mmHg 94%
    10:00 +7°C° 0.3 mm 1 m/S 734 mmHg 93%
    11:00 +7°C° 0.3 mm 1 m/S 734 mmHg 92%
    12:00 +7°C° 0.7 mm 1 m/S 734 mmHg 93%
    13:00 +7°C° 0.7 mm 1 m/S 734 mmHg 95%
    14:00 +7°C° 0.7 mm 1 m/S 733 mmHg 96%
    15:00 +7°C° 1.5 mm 1 m/S 733 mmHg 96%
    16:00 +5°C° 1.5 mm 2 m/S 732 mmHg 97%
    17:00 +5°C° 1.5 mm 2 m/S 732 mmHg 97%
    18:00 +5°C° 1.1 mm 2 m/S 731 mmHg 97%
    19:00 +5°C° 1.1 mm 2 m/S 731 mmHg 96%
    20:00 +6°C° 1.1 mm 2 m/S 730 mmHg 96%
    21:00 +5°C° 0.2 mm 3 m/S 730 mmHg 95%
    22:00 +7°C° 0.2 mm 3 m/S 730 mmHg 95%
    23:00 +7°C° 0.2 mm 4 m/S 729 mmHg 94%

    29 Oktober, Montag

    Zeit Temperatur Niederschläge Wind Luftdruck Luftfeuchtigkeit
    00:00 +7°C° 0.1 mm 5 m/S 730 mmHg 89%
    01:00 +7°C° 0.1 mm 6 m/S 730 mmHg 85%
    02:00 +6°C° 0.1 mm 7 m/S 731 mmHg 80%
    03:00 +5°C° 0 mm 7 m/S 732 mmHg 79%
    04:00 +4°C° 0 mm 6 m/S 733 mmHg 78%
    05:00 +3°C° 0 mm 6 m/S 734 mmHg 77%
    06:00 +3°C° 0 mm 6 m/S 735 mmHg 78%
    07:00 +3°C° 0 mm 5 m/S 737 mmHg 79%
    08:00 +3°C° 0 mm 5 m/S 738 mmHg 80%
    09:00 +3°C° 0 mm 5 m/S 739 mmHg 78%
    10:00 +3°C° 0 mm 5 m/S 740 mmHg 77%
    11:00 +5°C° 0 mm 5 m/S 741 mmHg 75%
    12:00 +5°C° 0 mm 4 m/S 741 mmHg 74%
    13:00 +5°C° 0 mm 4 m/S 742 mmHg 73%
    14:00 +5°C° 0 mm 4 m/S 743 mmHg 72%
    15:00 +4°C° 0 mm 3 m/S 743 mmHg 75%
    16:00 +4°C° 0 mm 3 m/S 744 mmHg 78%
    17:00 +3°C° 0 mm 3 m/S 744 mmHg 82%
    18:00 +4°C° 0 mm 2 m/S 745 mmHg 84%
    19:00 +3°C° 0 mm 2 m/S 745 mmHg 87%
    20:00 +3°C° 0 mm 2 m/S 746 mmHg 89%
    21:00 +3°C° 0 mm 2 m/S 746 mmHg 91%
    22:00 +3°C° 0 mm 1 m/S 746 mmHg 92%
    23:00 +3°C° 0 mm 1 m/S 747 mmHg 93%
    Mehr zeigen